This is the latest recevied weather packets stored in our database for station/object DH1NAI-6. If no packets are shown the sender has not sent any weather packets the latest 10 day(s).
| Time | Temp. | Humidity | Pressure | Rain* | Wind** | Luminosity | Snow |
|---|---|---|---|---|---|---|---|
| 1777609711 | -1.67° C | 99% | 1025.1 hPa | 0 mm | - | 4 W/m² | - |
| 1777609108 | -2.22° C | 99% | 1025.2 hPa | 0 mm | - | 3 W/m² | - |
| 1777608499 | -1.67° C | 99% | 1025.1 hPa | 0 mm | - | 2 W/m² | - |
| 1777607875 | -2.22° C | 99% | 1025.2 hPa | 0 mm | - | 1 W/m² | - |
| 1777607252 | -2.78° C | 99% | 1025.2 hPa | 0 mm | - | 0 W/m² | - |
| 1777606643 | -1.67° C | 99% | 1025 hPa | 0 mm | - | 0 W/m² | - |
| 1777606036 | -1.67° C | 99% | 1025.2 hPa | 0 mm | - | 0 W/m² | - |
| 1777605428 | -2.22° C | 99% | 1025.3 hPa | 0 mm | - | 0 W/m² | - |
| 1777604820 | -2.22° C | 99% | 1025.2 hPa | 0 mm | - | 0 W/m² | - |
| 1777604211 | -2.22° C | 99% | 1025.1 hPa | 0 mm | - | 0 W/m² | - |
| 1777603604 | -1.67° C | 99% | 1025.1 hPa | 0 mm | - | 0 W/m² | - |
| 1777602991 | -1.67° C | 99% | 1025.2 hPa | 0 mm | - | 0 W/m² | - |
| 1777602388 | -1.67° C | 99% | 1025.4 hPa | 0 mm | - | 0 W/m² | - |
| 1777601779 | -1.67° C | 99% | 1025.4 hPa | 0 mm | - | 0 W/m² | - |
| 1777601172 | -1.67° C | 98% | 1025.1 hPa | 0 mm | - | 0 W/m² | - |
| 1777600563 | -1.67° C | 98% | 1025.3 hPa | 0 mm | - | 0 W/m² | - |
| 1777599956 | -1.67° C | 98% | 1025.5 hPa | 0 mm | - | 0 W/m² | - |
| 1777599347 | -1.11° C | 98% | 1025.2 hPa | 0 mm | - | 0 W/m² | - |
| 1777598740 | -1.11° C | 98% | 1025.1 hPa | 0 mm | - | 0 W/m² | - |
| 1777598131 | -0.56° C | 97% | 1025.2 hPa | 0 mm | - | 0 W/m² | - |
| 1777597524 | -0.56° C | 96% | 1025.5 hPa | 0 mm | - | 0 W/m² | - |
| 1777596915 | 0° C | 97% | 1025.3 hPa | 0 mm | - | 0 W/m² | - |
| 1777596308 | -0.56° C | 98% | 1025.6 hPa | 0 mm | - | 0 W/m² | - |
| 1777595699 | -0.56° C | 97% | 1025.3 hPa | 0 mm | - | 0 W/m² | - |
| 1777595075 | -0.56° C | 97% | 1025.4 hPa | 0 mm | - | 0 W/m² | - |
* Rain latest hour (hover to see other rain measurements)
** Current wind speed in m/s (hover to see current wind gust speed)